Volver al catálogo

HERMES-6

ActivoCienciaSSO
NORAD 63489·PAYLOAD·🇮🇹 Italy

Lanzado Mar 15, 2025 desde Vandenberg Space Force Base

Loading…

Próximos Pases (próximas 24 horas)

TLE

ActualizadoSource: Space-Track

Época: Sep 13, 2026, 16:13 UTC

1 63489U 25052BK  26256.67574985  .00004045  00000-0  17027-3 0  9999
2 63489  97.3862 147.8806 0005104 204.2415 155.8583 15.23927057 83309

Sigue HERMES-6 en tiempo real con AllMySat

Download on the App Store